CW8081 Thessaloniki GR current weather conditions

sailwx.info

Wind from 153 at 1 knots gusting 5

Air temperature 18.9° C
Dewpoint 16.3° C

Last reported at 2014-Oct-23 01:41 UTC.
Time now 2014-Oct-23 02:25 UTC

Location: N 40°34' E 022°58'.
View on Google Maps.

See reports from other nearby stations

  
Tides and Currents Weather Stations Pressure Air Temp Water Temp Dewpoint Dewpoint Depression Visibility Wind Speed Wind Dir Waves Ship Positions
date/time (UTC)wind fromknots sea level pressurealtimeterstation pressurevisibilityair tempwater tempwave heightnotes
2014-Oct-23 01:41 153 1 gusting 5 18.9
2014-Oct-23 01:30 082 1 gusting 8 18.9
2014-Oct-23 01:11 148 4 gusting 10 19.4
2014-Oct-23 01:01 144 5 gusting 17 20.0
2014-Oct-23 00:40 145 5 gusting 12 20.6
2014-Oct-23 00:30 138 6 gusting 13 20.6
2014-Oct-23 00:11 122 5 gusting 13 21.1
2014-Oct-23 00:01 130 7 gusting 18 21.1
2014-Oct-22 23:40 141 6 gusting 18 21.1
2014-Oct-22 23:31 106 5 gusting 15 21.1
2014-Oct-22 23:10 115 7 gusting 19 21.1
2014-Oct-22 23:01 150 7 gusting 15 21.1
2014-Oct-22 22:41 135 7 gusting 17 21.1
2014-Oct-22 22:30 122 5 gusting 13 21.1
2014-Oct-22 22:11 134 6 gusting 13 21.1
2014-Oct-22 22:01 150 5 gusting 15 21.1
2014-Oct-22 21:40 147 6 gusting 13 20.6
2014-Oct-22 21:31 132 6 gusting 13 20.6
2014-Oct-22 21:11 114 4 gusting 7 20.6
2014-Oct-22 21:01 138 4 gusting 11 20.6
2014-Oct-22 20:41 139 4 gusting 10 20.6
2014-Oct-22 20:31 133 5 gusting 12 20.6
2014-Oct-22 20:11 161 5 gusting 12 20.6
2014-Oct-22 20:01 111 4 gusting 13 20.6
2014-Oct-22 19:41 137 6 gusting 12 20.6
2014-Oct-22 19:31 161 4 gusting 12 20.6
2014-Oct-22 19:11 127 6 gusting 11 20.6
2014-Oct-22 19:01 157 4 gusting 15 20.0
2014-Oct-22 18:41 152 4 gusting 10 20.0
2014-Oct-22 18:31 126 5 gusting 10 20.0
2014-Oct-22 18:11 130 4 gusting 7 20.0
2014-Oct-22 18:01 148 3 gusting 11 19.4
2014-Oct-22 17:41 140 2 gusting 6 19.4
2014-Oct-22 17:31 138 1 gusting 10 19.4
2014-Oct-22 17:11 136 1 gusting 8 19.4
2014-Oct-22 17:01 142 19.4
2014-Oct-22 16:41 148 2 gusting 6 19.4
2014-Oct-22 16:31 155 2 gusting 7 19.4
2014-Oct-22 16:10 173 1 gusting 7 20.0
2014-Oct-22 16:01 148 3 gusting 7 20.0
2014-Oct-22 15:40 145 5 gusting 10 20.6
2014-Oct-22 15:31 163 5 gusting 8 20.6
2014-Oct-22 15:11 156 3 gusting 10 21.1
2014-Oct-22 15:01 170 4 gusting 8 21.1
2014-Oct-22 14:41 198 4 gusting 11 21.7
2014-Oct-22 14:31 167 4 gusting 10 21.7
2014-Oct-22 14:11 205 5 gusting 10 22.2
2014-Oct-22 14:01 190 5 gusting 10 22.2
2014-Oct-22 13:40 202 4 gusting 7 22.2
2014-Oct-22 13:31 252 21.7
2014-Oct-22 13:11 252 4 gusting 7 21.7
2014-Oct-22 13:01 267 4 gusting 7 21.7
2014-Oct-22 12:41 244 4 gusting 7 21.7
2014-Oct-22 12:31 231 2 gusting 7 21.7
2014-Oct-22 12:11 233 4 gusting 6 21.7
2014-Oct-22 12:01 249 21.7
2014-Oct-22 11:41 211 21.1
2014-Oct-22 11:30 259 20.6
2014-Oct-22 11:10 223 20.6
2014-Oct-22 11:01 236 1 gusting 6 20.6
2014-Oct-22 10:41 271 4 gusting 6 20.0
2014-Oct-22 10:31 243 3 gusting 6 20.0
2014-Oct-22 10:11 247 4 gusting 6 20.0
2014-Oct-22 10:01 244 4 gusting 7 19.4
2014-Oct-22 09:41 246 4 gusting 6 18.9
2014-Oct-22 09:31 251 4 gusting 6 18.9
2014-Oct-22 09:11 213 4 gusting 6 18.3
2014-Oct-22 09:01 246 2 gusting 7 18.3
2014-Oct-22 08:41 221 2 gusting 5 18.3
2014-Oct-22 08:31 268 2 gusting 6 17.8
2014-Oct-22 08:10 250 1 gusting 5 18.3
2014-Oct-22 08:01 229 17.8
2014-Oct-22 07:40 223 16.1
2014-Oct-22 07:31 208 0 gusting 4 15.0
2014-Oct-22 07:11 206 15.0
2014-Oct-22 07:01 206 1 gusting 5 15.0
2014-Oct-22 06:41 196 1 gusting 5 15.0
2014-Oct-22 06:31 155 15.0
2014-Oct-22 06:11 151 14.4
2014-Oct-22 06:01 151 0 gusting 1 13.9
2014-Oct-22 05:41 152 12.8
2014-Oct-22 04:11 152 12.8
2014-Oct-22 04:01 152 12.8
2014-Oct-22 03:41 152 12.8
2014-Oct-22 03:31 152 12.8
2014-Oct-22 03:11 152 12.8
2014-Oct-22 03:01 152 12.8
2014-Oct-22 02:41 152 13.3
2014-Oct-22 02:31 152 13.3
2014-Oct-22 02:11 152 13.9
2014-Oct-22 02:01 152 13.9
2014-Oct-22 01:41 152 13.9
2014-Oct-22 01:31 152 13.9
2014-Oct-22 01:11 152 14.4
2014-Oct-22 01:01 152 13.9
2014-Oct-22 00:41 152 13.9
2014-Oct-22 00:31 152 13.9
2014-Oct-22 00:11 153 13.9
2014-Oct-22 00:01 153 13.9
2014-Oct-21 23:41 152 13.9
2014-Oct-21 23:31 152 13.9
2014-Oct-21 23:11 152 13.9
2014-Oct-21 23:01 152 14.4
2014-Oct-21 22:41 152 14.4
2014-Oct-21 22:31 152 14.4
2014-Oct-21 22:01 152 15.0
2014-Oct-21 21:41 152 15.0
2014-Oct-21 21:31 152 15.0
2014-Oct-21 21:11 152 15.6
2014-Oct-21 21:01 152 15.6
2014-Oct-21 20:41 152 16.1
2014-Oct-21 20:31 152 16.1
2014-Oct-21 20:11 152 16.1
2014-Oct-21 20:01 152 16.7
2014-Oct-21 19:41 152 16.7
2014-Oct-21 19:31 152 16.7
2014-Oct-21 19:11 152 0 gusting 2 17.2
2014-Oct-21 19:01 152 0 gusting 2 17.2
2014-Oct-21 18:41 180 17.2
2014-Oct-21 18:31 180 17.2
2014-Oct-21 18:11 180 17.8
2014-Oct-21 18:01 180 17.8
2014-Oct-21 17:41 180 17.8
2014-Oct-21 17:31 180 17.8
2014-Oct-21 17:11 205 18.3
2014-Oct-21 17:01 205 18.3
2014-Oct-21 16:41 205 0 gusting 1 18.3
2014-Oct-21 16:31 205 18.9
2014-Oct-21 16:11 204 19.4
2014-Oct-21 15:41 200 3 gusting 6 20.6
2014-Oct-21 15:31 211 2 gusting 6 20.6
2014-Oct-21 15:11 190 3 gusting 7 21.1
2014-Oct-21 15:01 217 3 gusting 5 21.7
2014-Oct-21 14:41 274 22.2
2014-Oct-21 14:31 247 22.2
2014-Oct-21 14:11 211 21.7
2014-Oct-21 14:01 273 21.7
2014-Oct-21 13:41 292 21.7
2014-Oct-21 13:31 262 21.7
2014-Oct-21 13:11 262 21.7
2014-Oct-21 13:01 257 21.7
2014-Oct-21 12:41 278 21.7
2014-Oct-21 12:31 280 4 gusting 6 21.1
2014-Oct-21 12:11 246 4 gusting 6 21.7
2014-Oct-21 12:01 248 1 gusting 8 21.7
2014-Oct-21 11:41 253 5 gusting 6 20.6
2014-Oct-21 11:31 246 4 gusting 6 21.1
2014-Oct-21 11:11 225 4 gusting 6 21.1
2014-Oct-21 11:01 221 0 gusting 5 21.7
2014-Oct-21 10:41 271 1 gusting 5 20.6
2014-Oct-21 10:31 273 4 gusting 6 20.6
2014-Oct-21 10:11 211 5 gusting 7 20.6
2014-Oct-21 10:01 274 20.6
2014-Oct-21 09:41 231 0 gusting 4 19.4
2014-Oct-21 09:31 209 4 gusting 6 18.9
2014-Oct-21 09:11 219 2 gusting 5 18.3
2014-Oct-21 09:01 228 3 gusting 6 17.8
2014-Oct-21 08:41 232 17.8
2014-Oct-21 05:41 009 12.2
2014-Oct-21 05:31 009 12.2
2014-Oct-21 05:11 009 12.2
2014-Oct-21 05:01 005 12.2
2014-Oct-21 04:41 005 12.2
2014-Oct-21 04:31 005 12.2
2014-Oct-21 04:11 009 12.2
2014-Oct-21 04:01 009 12.2
2014-Oct-21 03:41 009 12.2
2014-Oct-21 03:31 005 2 gusting 2 12.2
2014-Oct-21 03:11 005 12.2
2014-Oct-21 03:01 005 12.2
2014-Oct-21 02:41 005 1 gusting 2 12.2
2014-Oct-21 02:31 005 12.2
2014-Oct-21 02:11 005 12.8
2014-Oct-21 02:01 005 12.8